Location: Brunembert
(50.7122°N, 1.8935°E)
Time: 04:42:46
(UTC+00:00)

ERS-1 Rocket - Pass Details

Date: 22 April 2021
Orbit: 753 x 758 km, 98.4° (Epoch: 06 May)

Event Time Altitude Azimuth Distance (km) Brightness Sun altitude
Exits shadow 21:33:53 36° 180° (S) 1,192 3.6 -20.1°
Maximum altitude 21:35:58 73° 256° (WSW) 791 3.0 -20.3°
Drops below altitude 10° 21:41:00 10° 342° (NNW) 2,290 6.5 -20.7°
Sets 21:43:19 0° 344° (NNW) 3,219 7.5 -20.9°
